Regional Weather Roundup
Issued by NWS

Home | Current Version | Previous Version | Graphics & Text | Print | Product List | Glossary On
Versions: 1 2 3 4 5 6 7 8 9 10 11 12 13 14 15 16 17 18 19 20 21 22 23 24 25 26 27 28 29 30 31 32 33 34 35 36 37 38 39 40 41 42 43 44 45 46 47 48 49 50
000
ASUS45 KBOI 172310
RWRID
WEATHER ROUNDUP FOR IDAHO
NATIONAL WEATHER SERVICE BOISE ID
500 PM MDT WED SEP 17 2014

NOTE: "FAIR" INDICATES FEW OR NO CLOUDS BELOW 12000 FEET
WITH NO SIGNIFICANT WEATHER AND/OR OBSTRUCTIONS TO VISIBILITY

IDZ012-014-180000-
SOUTHWEST IDAHO


CITY           SKY/WX    TMP DP  RH WIND       PRES   REMARKS
BOISE          MOSUNNY   92  36  14 N6        29.75F
CALDWELL       MOSUNNY   88  48  25 E5        29.76F
MOUNTAIN HOME  MOSUNNY   92  40  16 N5        29.76F
$$

IDZ016-017-180000-
SOUTHCENTRAL IDAHO


CITY           SKY/WX    TMP DP  RH WIND       PRES   REMARKS
BURLEY         MOSUNNY   88  45  22 VRB5      29.83F
JEROME         MOSUNNY   89  41  18 CALM      29.84F
TWIN FALLS     PTSUNNY   89  47  23 NE7       29.85F
$$

IDZ019>023-180000-
SOUTHEAST IDAHO


CITY           SKY/WX    TMP DP  RH WIND       PRES   REMARKS
IDAHO FALLS    MOSUNNY   88  42  20 N6        29.92F
POCATELLO      MOSUNNY   93  39  15 VRB6      29.89F
REXBURG        MOSUNNY   84  39  20 N3        29.94F
$$

IDZ006-010-011-018-031-032-180000-
CENTRAL IDAHO MOUNTAINS


CITY           SKY/WX    TMP DP  RH WIND       PRES   REMARKS
MCCALL         PTSUNNY   79  35  20 S6        29.91F
HAILEY         MOSUNNY   82  48  30 SE7       29.95F
STANLEY          N/A     79  35  20 NW6       30.02F
SALMON         CLOUDY    72  48  43 W6        29.89F
CHALLIS        PTSUNNY   80  41  24 N6        29.94F
$$

IDZ002-004-006-007-026-180000-
NORTHERN IDAHO


CITY           SKY/WX    TMP DP  RH WIND       PRES   REMARKS
LEWISTON       PTSUNNY   87  46  24 NW5       29.67F SMOKE
LOWELL           N/A     72  60  66 CALM      29.72F
COEUR D`ALENE  CLOUDY    84  41  21 N7        29.71F
MULLAN PASS    CLOUDY    70  43  37 VRB3      29.96F
$$


USA.gov is the U.S. government's official web portal to all federal, state and local government web resources and services.